DateTimeUTC,F1_A11,F1_S11,BsB_S11,BsG_S11,BsR_S11,BbsB_S11,BbsG_S11,BbsR_S11,BaB_A11,BaG_A11,BaR_A11,Tu_S11,T_S11,Uu_S11,U_S11,P_S11,T1_A11
2021-04-21T00:00:00Z,00000200,21000000,,,,,,,-000.26,0000.02,-000.36,16.7,24.4,,00.0,0655.8,31.1
2021-04-21T00:01:00Z,00000200,21000000,,,,,,,0000.20,-000.15,0000.26,16.7,24.4,,00.0,0655.8,31.0
2021-04-21T00:02:00Z,00000200,21000000,,,,,,,-000.22,-000.20,0000.20,16.6,24.4,,00.0,0655.8,31.0
2021-04-21T00:03:00Z,00000200,61000000,,,,,,,0000.17,-000.00,-000.26,16.6,24.4,,00.0,0655.8,31.0
2021-04-21T00:04:00Z,00000200,41000000,-000.12,0000.26,0000.15,0000.23,0000.06,-000.06,-000.10,-000.11,0000.19,16.7,24.1,,00.0,0656.7,31.0
2021-04-21T00:05:00Z,00000200,01000000,0000.44,0000.34,0000.14,0000.08,0000.02,-000.19,0000.23,0000.10,-000.29,16.7,24.1,,00.0,0656.8,31.0
2021-04-21T00:06:00Z,00000200,01000000,0000.15,0000.14,0000.15,-000.07,-000.05,0000.05,-000.08,0000.23,0000.43,16.6,24.0,,00.0,0656.8,31.0
2021-04-21T00:07:00Z,00000200,01000000,0000.19,0000.36,-000.15,0000.09,-000.07,-000.24,0000.23,0000.55,0000.06,16.7,24.0,,00.0,0656.8,31.0
2021-04-21T00:08:00Z,00000200,01000000,-000.07,0000.06,0000.02,0000.17,-000.06,-000.13,0000.17,-000.26,-000.09,16.7,24.0,,00.0,0656.8,31.0
2021-04-21T00:09:00Z,00000200,01000000,0000.10,0000.11,-000.13,0000.10,-000.04,-000.28,0000.10,0000.10,0000.18,16.8,24.0,,00.0,0656.8,31.1
2021-04-21T00:10:00Z,00000200,01000000,-000.27,0000.04,0000.25,0000.17,-000.19,-000.04,0000.05,-000.06,0000.24,16.9,24.1,,00.0,0656.8,31.0
2021-04-21T00:11:00Z,00000200,01000000,0000.23,0000.34,-000.18,0000.25,-000.06,-000.20,-000.13,0000.26,-000.10,16.9,24.1,,00.0,0656.8,31.0
2021-04-21T00:12:00Z,00000200,01000000,0000.30,-000.07,-000.04,0000.18,-000.07,-000.16,-000.14,-000.09,-000.08,17.0,24.1,,00.0,0656.8,31.1
2021-04-21T00:13:00Z,00000200,01000000,-000.19,0000.13,0000.09,0000.27,0000.02,-000.07,0000.23,-000.04,-000.12,17.0,24.1,,00.0,0656.8,31.0
2021-04-21T00:14:00Z,00000200,01000000,0000.97,0000.33,0000.21,0000.30,0000.01,-000.11,-000.04,-000.09,-000.21,17.0,24.1,,00.0,0656.8,31.0
2021-04-21T00:15:00Z,00000200,01000000,0000.89,0000.25,0000.14,-000.24,0000.10,-000.39,0000.27,0000.43,0000.10,16.9,24.1,,00.0,0656.8,31.0
2021-04-21T00:16:00Z,00000200,01000000,0000.65,0000.21,0000.46,0000.69,-000.07,0000.26,-000.41,-000.35,-000.11,16.8,24.1,,00.0,0656.8,31.0
2021-04-21T00:17:00Z,00000200,01000000,0000.07,-000.08,0000.26,-000.06,0000.18,0000.16,0000.11,-000.23,0000.03,16.8,24.1,,00.0,0656.9,31.0
2021-04-21T00:18:00Z,00000200,01000000,0000.61,0000.29,0000.05,0000.18,0000.01,-000.09,-000.21,-000.09,-000.12,16.8,24.0,,00.0,0656.9,31.0
2021-04-21T00:19:00Z,00000200,01000000,-000.17,-000.00,0000.20,0000.18,-000.06,-000.16,0000.00,-000.09,0000.28,16.7,24.0,,00.0,0656.9,31.0
2021-04-21T00:20:00Z,00000200,01000000,0000.32,0000.06,-000.02,0000.53,0000.17,0000.24,0000.17,0000.20,0000.03,16.7,24.0,,00.0,0656.9,31.0
2021-04-21T00:21:00Z,00000200,01000000,0000.08,0000.17,0000.21,-000.23,0000.25,-000.09,-000.02,0000.18,-000.27,16.7,24.0,,00.0,0656.9,31.0
2021-04-21T00:22:00Z,00000200,01000000,-000.04,0000.08,0000.11,0000.37,-000.13,0000.12,0000.36,0000.25,0000.50,16.7,24.0,,00.0,0656.9,31.0
2021-04-21T00:23:00Z,00000200,01000000,-000.24,0000.17,0000.09,0000.48,-000.05,-000.10,0000.21,0000.25,0000.24,16.7,24.0,,00.0,0656.9,31.0
2021-04-21T00:24:00Z,00000200,01000000,0000.59,0000.10,0000.06,0000.61,0000.14,0000.03,0000.31,0000.21,0000.22,16.8,24.0,,00.0,0656.9,31.0
2021-04-21T00:25:00Z,00000200,01000000,-000.39,0000.40,0000.14,-000.23,0000.09,0000.04,-000.06,0000.08,0000.14,16.9,24.0,,00.0,0656.9,31.0
2021-04-21T00:26:00Z,00000200,01000000,0000.26,0000.09,-000.01,-000.07,-000.04,-000.08,0000.25,-000.02,-000.33,16.9,24.0,,00.0,0656.9,31.1
2021-04-21T00:27:00Z,00000200,01000000,0000.15,0000.23,-000.04,0000.31,-000.03,0000.18,0000.05,0000.40,0000.58,17.0,24.1,,00.0,0656.9,31.1
2021-04-21T00:28:00Z,00000200,01000000,0000.02,0000.26,0000.14,-000.26,0000.18,0000.06,0000.30,0000.18,-000.11,17.1,24.1,,00.0,0656.9,31.1
2021-04-21T00:29:00Z,00000200,01000000,0000.73,0000.24,0000.17,0000.47,-000.11,0000.01,0000.00,-000.05,0000.43,17.1,24.2,,00.0,0656.9,31.1
2021-04-21T00:30:00Z,00000200,01000000,0000.11,-000.03,-000.20,0000.26,-000.17,-000.26,-000.14,0000.03,-000.37,17.2,24.2,,00.0,0656.9,31.1
2021-04-21T00:31:00Z,00000200,01000000,0000.06,0000.37,0000.04,-000.44,0000.05,-000.21,0000.36,0000.32,0000.59,17.3,24.3,,00.0,0656.9,31.1
2021-04-21T00:32:00Z,00000200,01000000,0000.51,0000.03,0000.22,0000.31,-000.11,0000.11,-000.23,-000.21,-000.23,17.3,24.3,,00.0,0656.9,31.1
2021-04-21T00:33:00Z,00000200,01000000,-000.02,-000.04,-000.19,0000.13,0000.09,0000.19,0000.38,0000.46,-000.12,17.4,24.4,,00.0,0657.0,31.1
2021-04-21T00:34:00Z,00000200,01000000,0000.44,0000.36,0000.23,-000.08,-000.30,0000.03,-000.06,-000.17,0000.22,17.4,24.4,,00.0,0656.9,31.1
2021-04-21T00:35:00Z,00000200,01000000,-000.14,0000.29,0000.14,-000.15,-000.27,-000.07,-000.15,0000.15,-000.41,17.5,24.4,,00.0,0656.9,31.1
2021-04-21T00:36:00Z,00000200,01000000,0000.30,0000.11,0000.00,0000.30,0000.17,0000.29,0000.01,-000.54,-000.08,17.4,24.4,,00.0,0657.0,31.1
2021-04-21T00:37:00Z,00000200,01000000,-000.17,0000.07,0000.32,-000.40,-000.03,0000.02,-000.41,-000.24,-000.10,17.4,24.4,,00.0,0657.0,31.1
2021-04-21T00:38:00Z,00000200,01000000,-000.12,0000.00,0000.20,0000.13,0000.10,-000.11,0000.00,-000.22,-000.30,17.3,24.4,,00.0,0657.0,31.1
2021-04-21T00:39:00Z,00000200,01000000,0000.36,0000.04,0000.17,-000.02,-000.15,0000.08,-000.05,0000.15,0000.00,17.2,24.4,,00.0,0657.0,31.1
2021-04-21T00:40:00Z,00000200,01000000,0000.08,0000.25,-000.04,-000.13,0000.08,-000.18,-000.49,-000.22,0000.15,17.2,24.3,,00.0,0657.0,31.0
2021-04-21T00:41:00Z,00000200,01000000,0000.38,0000.26,-000.08,-000.13,-000.01,-000.30,0000.20,-000.23,-000.29,17.1,24.3,,00.0,0657.0,31.0
2021-04-21T00:42:00Z,00000200,01000000,0000.06,0000.09,0000.04,0000.64,0000.11,-000.06,-000.08,0000.09,-000.12,17.1,24.3,,00.0,0657.0,31.0
2021-04-21T00:43:00Z,00000200,01000000,0000.50,0000.09,0000.05,0000.43,0000.11,-000.18,0000.31,0000.01,0000.10,17.0,24.3,,00.0,0657.0,31.0
2021-04-21T00:44:00Z,00000200,01000000,0000.09,-000.01,0000.27,0000.40,-000.06,0000.13,-000.19,-000.08,-000.07,17.0,24.2,,00.0,0657.0,31.0
2021-04-21T00:45:00Z,00000200,01000000,0000.34,0000.26,0000.18,0000.52,0000.07,0000.09,0000.16,0000.41,0000.10,16.9,24.2,,00.0,0657.0,31.0
2021-04-21T00:46:00Z,00000200,01000000,0000.07,-000.04,-000.10,-000.02,0000.15,-000.20,0000.26,-000.34,-000.01,16.9,24.2,,00.0,0657.0,31.0
2021-04-21T00:47:00Z,00000200,01000000,-000.15,0000.35,-000.01,-000.06,-000.14,-000.10,-000.00,0000.28,0000.03,16.8,24.1,,00.0,0657.1,31.0
2021-04-21T00:48:00Z,00000200,01000000,-000.18,0000.35,-000.00,0000.15,0000.07,0000.26,0000.06,0000.15,0000.32,16.8,24.1,,00.0,0657.0,31.0
2021-04-21T00:49:00Z,00000200,01000000,0000.66,0000.26,-000.05,0000.05,-000.05,-000.27,-000.16,-000.24,0000.02,16.7,24.1,,00.0,0657.1,31.0
2021-04-21T00:50:00Z,00000200,01000000,0000.11,0000.14,0000.39,0000.34,0000.09,-000.08,0000.19,0000.33,0000.23,16.7,24.1,,00.0,0657.1,31.0
2021-04-21T00:51:00Z,00000200,01000000,-000.09,0000.10,0000.26,0000.44,-000.02,-000.04,0000.18,-000.05,-000.06,16.7,24.0,,00.0,0657.1,31.0
2021-04-21T00:52:00Z,00000200,01000000,0000.53,0000.34,0000.31,0000.07,-000.06,-000.22,0000.06,-000.29,-000.10,16.7,24.0,,00.0,0657.1,31.0
2021-04-21T00:53:00Z,00000200,01000000,0000.16,0000.32,0000.04,0000.16,-000.17,-000.09,-000.06,0000.40,0000.18,16.6,24.0,,00.0,0657.1,31.0
2021-04-21T00:54:00Z,00000200,01000000,0000.73,0000.15,0000.13,-000.15,0000.10,0000.04,0000.02,0000.08,0000.09,16.6,24.0,,00.0,0657.1,31.0
2021-04-21T00:55:00Z,00000200,01000000,-000.08,0000.10,0000.16,0000.26,-000.02,0000.11,0000.40,-000.09,-000.20,16.6,23.9,,00.0,0657.1,31.0
2021-04-21T00:56:00Z,00000200,01000000,-000.08,0000.12,0000.27,-000.17,0000.13,-000.17,-000.21,0000.33,0000.23,16.6,23.9,,00.0,0657.1,31.0
2021-04-21T00:57:00Z,00000200,41000000,,,,,,,0000.43,0000.36,0000.44,16.6,24.0,,00.0,0657.0,31.0
2021-04-21T00:58:00Z,00000200,61000000,,,,,,,-000.24,-000.26,-000.40,16.2,24.1,,00.0,0656.1,31.0
2021-04-21T00:59:00Z,00000200,21000000,,,,,,,-000.04,-000.26,0000.11,16.1,24.2,,00.0,0656.1,30.9
